Time,TemperatureF,DewpointF,PressureIn,WindDirection,WindDirectionDegrees,WindSpeedMPH,WindSpeedGustMPH,Humidity,HourlyPrecipIn,Conditions,Clouds,dailyrainin,SoftwareType,DateUTC
2013-08-23 00:05:00,77.5,75.6,30.01,North,1,0.0,3.0,94,0.00,,,0.00,Wunderground v.1.15,2013-08-23 05:05:00,
2013-08-23 00:15:00,77.5,75.6,30.00,North,1,0.0,3.0,94,0.00,,,0.00,Wunderground v.1.15,2013-08-23 05:15:00,
2013-08-23 00:20:00,77.6,75.4,30.00,North,1,0.0,3.0,93,0.00,,,0.00,Wunderground v.1.15,2013-08-23 05:20:00,
2013-08-23 00:25:00,77.6,75.4,30.00,North,1,0.0,3.0,93,0.00,,,0.00,Wunderground v.1.15,2013-08-23 05:25:00,
2013-08-23 00:30:00,77.6,75.4,30.00,North,1,0.0,3.0,93,0.00,,,0.00,Wunderground v.1.15,2013-08-23 05:30:00,
2013-08-23 00:40:00,77.3,75.4,30.00,North,5,0.0,3.0,94,0.00,,,0.00,Wunderground v.1.15,2013-08-23 05:40:00,
2013-08-23 00:45:00,76.9,75.0,30.00,NE,44,1.0,3.0,94,0.00,,,0.00,Wunderground v.1.15,2013-08-23 05:45:00,
2013-08-23 00:50:00,76.6,75.1,30.00,NE,44,1.0,1.0,95,0.00,,,0.00,Wunderground v.1.15,2013-08-23 05:50:00,
2013-08-23 01:00:00,76.3,75.1,30.00,NE,43,0.0,3.0,96,0.00,,,0.00,Wunderground v.1.15,2013-08-23 06:00:00,
2013-08-23 01:05:00,76.3,75.1,30.00,NE,44,0.0,3.0,96,0.00,,,0.00,Wunderground v.1.15,2013-08-23 06:05:00,
2013-08-23 01:15:00,76.1,74.9,29.99,NE,44,0.0,3.0,96,0.00,,,0.00,Wunderground v.1.15,2013-08-23 06:15:00,
2013-08-23 01:20:00,76.0,74.8,29.99,NE,44,0.0,3.0,96,0.00,,,0.00,Wunderground v.1.15,2013-08-23 06:20:00,
2013-08-23 01:25:00,75.9,75.0,29.99,NE,43,0.0,3.0,97,0.00,,,0.00,Wunderground v.1.15,2013-08-23 06:25:00,
2013-08-23 01:35:00,75.9,75.0,30.00,NE,43,0.0,3.0,97,0.00,,,0.00,Wunderground v.1.15,2013-08-23 06:35:00,
2013-08-23 01:40:00,75.9,75.0,29.99,NE,43,0.0,3.0,97,0.00,,,0.00,Wunderground v.1.15,2013-08-23 06:40:00,
2013-08-23 01:50:00,75.7,74.5,29.99,SSE,148,0.0,3.0,96,0.00,,,0.00,Wunderground v.1.15,2013-08-23 06:50:00,
2013-08-23 01:55:00,75.4,74.2,29.99,SE,136,1.0,3.0,96,0.00,,,0.00,Wunderground v.1.15,2013-08-23 06:55:00,
2013-08-23 02:00:00,75.1,74.2,29.99,SE,136,1.0,1.0,97,0.00,,,0.00,Wunderground v.1.15,2013-08-23 07:00:00,
2013-08-23 02:05:00,75.1,74.2,29.99,SE,136,1.0,3.0,97,0.00,,,0.00,Wunderground v.1.15,2013-08-23 07:05:00,
2013-08-23 02:15:00,75.1,74.2,29.99,SE,136,1.0,3.0,97,0.00,,,0.00,Wunderground v.1.15,2013-08-23 07:15:00,
2013-08-23 02:20:00,75.1,74.5,29.99,SE,136,0.0,3.0,98,0.00,,,0.00,Wunderground v.1.15,2013-08-23 07:20:00,
2013-08-23 02:30:00,75.1,74.5,29.98,SE,136,0.0,3.0,98,0.00,,,0.00,Wunderground v.1.15,2013-08-23 07:30:00,
2013-08-23 02:35:00,75.1,74.5,29.98,SE,136,0.0,3.0,98,0.00,,,0.00,Wunderground v.1.15,2013-08-23 07:35:00,
2013-08-23 02:40:00,75.3,74.7,29.98,SE,136,0.0,3.0,98,0.00,,,0.00,Wunderground v.1.15,2013-08-23 07:40:00,
2013-08-23 02:45:00,75.3,74.7,29.98,SE,136,0.0,3.0,98,0.00,,,0.00,Wunderground v.1.15,2013-08-23 07:45:00,
2013-08-23 02:55:00,75.1,74.5,29.98,SE,136,1.0,3.0,98,0.00,,,0.00,Wunderground v.1.15,2013-08-23 07:55:00,
2013-08-23 03:00:00,74.9,74.3,29.98,SE,136,1.0,1.0,98,0.00,,,0.00,Wunderground v.1.15,2013-08-23 08:00:00,
2013-08-23 03:10:00,75.0,74.4,29.98,SE,136,0.0,3.0,98,0.00,,,0.00,Wunderground v.1.15,2013-08-23 08:10:00,
2013-08-23 03:15:00,75.0,74.4,29.97,SE,136,0.0,3.0,98,0.00,,,0.00,Wunderground v.1.15,2013-08-23 08:15:00,
2013-08-23 03:20:00,75.0,74.4,29.97,SE,136,0.0,3.0,98,0.00,,,0.00,Wunderground v.1.15,2013-08-23 08:20:00,
2013-08-23 03:30:00,75.1,74.5,29.97,SE,136,0.0,3.0,98,0.00,,,0.00,Wunderground v.1.15,2013-08-23 08:30:00,
2013-08-23 03:35:00,75.0,74.4,29.97,SE,136,0.0,3.0,98,0.00,,,0.00,Wunderground v.1.15,2013-08-23 08:35:00,
2013-08-23 03:40:00,74.9,74.3,29.97,SE,136,0.0,3.0,98,0.00,,,0.00,Wunderground v.1.15,2013-08-23 08:40:00,
2013-08-23 03:50:00,74.7,74.1,29.97,SE,136,0.0,3.0,98,0.00,,,0.00,Wunderground v.1.15,2013-08-23 08:50:00,
2013-08-23 03:55:00,74.7,74.1,29.97,SE,136,0.0,3.0,98,0.00,,,0.00,Wunderground v.1.15,2013-08-23 08:55:00,
2013-08-23 04:00:00,74.7,74.1,29.97,SE,136,0.0,3.0,98,0.00,,,0.00,Wunderground v.1.15,2013-08-23 09:00:00,
2013-08-23 04:10:00,74.4,73.8,29.97,SSE,153,1.0,1.0,98,0.00,,,0.00,Wunderground v.1.15,2013-08-23 09:10:00,
2013-08-23 04:15:00,74.1,73.5,29.97,SSE,153,0.0,3.0,98,0.00,,,0.00,Wunderground v.1.15,2013-08-23 09:15:00,
2013-08-23 04:20:00,74.1,73.5,29.97,SSE,153,0.0,3.0,98,0.00,,,0.00,Wunderground v.1.15,2013-08-23 09:20:00,
2013-08-23 04:25:00,74.1,73.5,29.97,SSE,153,0.0,3.0,98,0.00,,,0.00,Wunderground v.1.15,2013-08-23 09:25:00,
2013-08-23 04:35:00,74.2,73.6,29.97,SSE,153,0.0,3.0,98,0.00,,,0.00,Wunderground v.1.15,2013-08-23 09:35:00,
2013-08-23 04:40:00,74.2,73.6,29.97,SSE,153,0.0,3.0,98,0.00,,,0.00,Wunderground v.1.15,2013-08-23 09:40:00,
2013-08-23 04:50:00,74.2,73.6,29.97,SSE,153,0.0,3.0,98,0.00,,,0.00,Wunderground v.1.15,2013-08-23 09:50:00,
2013-08-23 04:55:00,74.3,73.7,29.97,SSE,153,0.0,3.0,98,0.00,,,0.00,Wunderground v.1.15,2013-08-23 09:55:00,
2013-08-23 05:00:00,74.2,73.6,29.97,SSE,153,0.0,3.0,98,0.00,,,0.00,Wunderground v.1.15,2013-08-23 10:00:00,
2013-08-23 05:05:00,74.1,73.5,29.97,SSE,153,0.0,3.0,98,0.00,,,0.00,Wunderground v.1.15,2013-08-23 10:05:00,
2013-08-23 05:15:00,74.3,73.7,29.97,SSE,153,0.0,3.0,98,0.00,,,0.00,Wunderground v.1.15,2013-08-23 10:15:00,
2013-08-23 05:20:00,74.1,73.5,29.97,SSE,153,0.0,3.0,98,0.00,,,0.00,Wunderground v.1.15,2013-08-23 10:20:00,
2013-08-23 05:30:00,74.2,73.6,29.97,SSE,153,0.0,3.0,98,0.00,,,0.00,Wunderground v.1.15,2013-08-23 10:30:00,
2013-08-23 05:35:00,74.2,73.6,29.97,SSE,153,0.0,3.0,98,0.00,,,0.00,Wunderground v.1.15,2013-08-23 10:35:00,
2013-08-23 05:40:00,74.0,73.4,29.97,SSE,153,0.0,3.0,98,0.00,,,0.00,Wunderground v.1.15,2013-08-23 10:40:00,
2013-08-23 05:50:00,73.7,73.1,29.98,SSE,153,0.0,3.0,98,0.00,,,0.00,Wunderground v.1.15,2013-08-23 10:50:00,
2013-08-23 05:55:00,73.7,73.1,29.98,SSE,153,0.0,3.0,98,0.00,,,0.00,Wunderground v.1.15,2013-08-23 10:55:00,
2013-08-23 06:00:00,73.7,73.1,29.98,SSE,153,0.0,3.0,98,0.00,,,0.00,Wunderground v.1.15,2013-08-23 11:00:00,
2013-08-23 06:10:00,73.4,72.8,29.98,SSE,153,0.0,3.0,98,0.00,,,0.00,Wunderground v.1.15,2013-08-23 11:10:00,
2013-08-23 06:15:00,73.5,73.2,29.98,SSE,153,0.0,3.0,99,0.00,,,0.00,Wunderground v.1.15,2013-08-23 11:15:00,
2013-08-23 06:20:00,73.6,73.0,29.98,SSE,153,0.0,3.0,98,0.00,,,0.00,Wunderground v.1.15,2013-08-23 11:20:00,
2013-08-23 06:30:00,73.3,72.7,29.98,SSE,153,0.0,3.0,98,0.00,,,0.00,Wunderground v.1.15,2013-08-23 11:30:00,
2013-08-23 06:35:00,73.3,72.7,29.98,SSE,153,0.0,3.0,98,0.00,,,0.00,Wunderground v.1.15,2013-08-23 11:35:00,
2013-08-23 06:40:00,73.5,73.2,29.98,SSE,153,0.0,3.0,99,0.00,,,0.00,Wunderground v.1.15,2013-08-23 11:40:00,
2013-08-23 06:50:00,73.3,72.7,29.99,SSE,158,0.0,3.0,98,0.00,,,0.00,Wunderground v.1.15,2013-08-23 11:50:00,
2013-08-23 06:55:00,73.3,72.7,29.99,SSE,158,0.0,3.0,98,0.00,,,0.00,Wunderground v.1.15,2013-08-23 11:55:00,
2013-08-23 07:00:00,73.6,73.3,29.99,SSE,159,0.0,3.0,99,0.00,,,0.00,Wunderground v.1.15,2013-08-23 12:00:00,
2013-08-23 07:10:00,74.8,74.5,29.99,SSE,158,0.0,3.0,99,0.00,,,0.00,Wunderground v.1.15,2013-08-23 12:10:00,
2013-08-23 07:15:00,74.9,74.3,29.99,West,259,0.0,3.0,98,0.00,,,0.00,Wunderground v.1.15,2013-08-23 12:15:00,
2013-08-23 07:20:00,75.1,74.5,30.00,NW,318,0.0,3.0,98,0.00,,,0.00,Wunderground v.1.15,2013-08-23 12:20:00,
2013-08-23 07:30:00,76.0,75.1,30.00,North,359,0.0,3.0,97,0.00,,,0.00,Wunderground v.1.15,2013-08-23 12:30:00,
2013-08-23 07:35:00,76.5,75.3,30.00,SE,135,0.0,3.0,96,0.00,,,0.00,Wunderground v.1.15,2013-08-23 12:35:00,
2013-08-23 07:40:00,76.6,75.1,30.00,ESE,120,1.0,3.0,95,0.00,,,0.00,Wunderground v.1.15,2013-08-23 12:40:00,
2013-08-23 07:50:00,77.2,75.3,30.00,ESE,111,1.0,3.0,94,0.00,,,0.00,Wunderground v.1.15,2013-08-23 12:50:00,
2013-08-23 07:55:00,77.6,75.7,30.00,SSE,153,1.0,3.0,94,0.00,,,0.00,Wunderground v.1.15,2013-08-23 12:55:00,
2013-08-23 08:00:00,78.3,76.1,30.00,SSE,158,1.0,3.0,93,0.00,,,0.00,Wunderground v.1.15,2013-08-23 13:00:00,
2013-08-23 08:10:00,79.8,76.9,30.00,SE,136,0.0,3.0,91,0.00,,,0.00,Wunderground v.1.15,2013-08-23 13:10:00,
2013-08-23 08:15:00,80.8,76.9,30.00,SE,135,0.0,3.0,88,0.00,,,0.00,Wunderground v.1.15,2013-08-23 13:15:00,
2013-08-23 08:20:00,81.6,77.0,30.00,SSE,147,0.0,3.0,86,0.00,,,0.00,Wunderground v.1.15,2013-08-23 13:20:00,
2013-08-23 08:30:00,82.2,77.2,30.00,ESE,120,0.0,3.0,85,0.00,,,0.00,Wunderground v.1.15,2013-08-23 13:30:00,
2013-08-23 08:35:00,83.0,77.7,30.00,ESE,119,0.0,3.0,84,0.00,,,0.00,Wunderground v.1.15,2013-08-23 13:35:00,
2013-08-23 08:40:00,83.4,77.7,30.00,ESE,107,0.0,3.0,83,0.00,,,0.00,Wunderground v.1.15,2013-08-23 13:40:00,
2013-08-23 08:50:00,84.3,77.5,30.00,NE,53,1.0,3.0,80,0.00,,,0.00,Wunderground v.1.15,2013-08-23 13:50:00,
2013-08-23 08:55:00,83.9,77.4,30.00,North,349,2.0,3.0,81,0.00,,,0.00,Wunderground v.1.15,2013-08-23 13:55:00,
2013-08-23 09:00:00,84.2,77.4,30.00,NE,44,2.0,2.0,80,0.00,,,0.00,Wunderground v.1.15,2013-08-23 14:00:00,
2013-08-23 09:10:00,84.8,76.8,30.00,NE,51,2.0,3.0,77,0.00,,,0.00,Wunderground v.1.15,2013-08-23 14:10:00,
2013-08-23 09:15:00,84.9,77.3,30.00,ENE,69,2.0,4.0,78,0.00,,,0.00,Wunderground v.1.15,2013-08-23 14:15:00,
2013-08-23 09:20:00,85.0,77.4,30.00,NE,56,2.0,3.0,78,0.00,,,0.00,Wunderground v.1.15,2013-08-23 14:20:00,
2013-08-23 09:30:00,85.2,76.8,30.00,NNW,329,3.0,4.0,76,0.00,,,0.00,Wunderground v.1.15,2013-08-23 14:30:00,
2013-08-23 09:35:00,85.4,76.6,30.00,ENE,77,4.0,4.0,75,0.00,,,0.00,Wunderground v.1.15,2013-08-23 14:35:00,
2013-08-23 09:40:00,85.8,77.4,30.00,NNE,31,3.0,3.0,76,0.00,,,0.00,Wunderground v.1.15,2013-08-23 14:40:00,
2013-08-23 09:50:00,86.0,76.7,30.00,North,6,3.0,3.0,74,0.00,,,0.00,Wunderground v.1.15,2013-08-23 14:50:00,
2013-08-23 09:55:00,86.6,76.9,30.00,NE,43,3.0,5.0,73,0.00,,,0.00,Wunderground v.1.15,2013-08-23 14:55:00,
2013-08-23 10:05:00,86.8,77.1,30.00,NNE,33,4.0,5.0,73,0.00,,,0.00,Wunderground v.1.15,2013-08-23 15:05:00,
2013-08-23 10:10:00,87.4,77.7,30.00,ENE,77,3.0,3.0,73,0.00,,,0.00,Wunderground v.1.15,2013-08-23 15:10:00,
2013-08-23 10:15:00,87.6,77.5,30.00,North,1,3.0,5.0,72,0.00,,,0.00,Wunderground v.1.15,2013-08-23 15:15:00,
2013-08-23 10:25:00,87.5,76.9,30.00,ENE,75,4.0,5.0,71,0.00,,,0.00,Wunderground v.1.15,2013-08-23 15:25:00,
2013-08-23 10:30:00,87.5,76.5,30.00,ESE,104,4.0,5.0,70,0.00,,,0.00,Wunderground v.1.15,2013-08-23 15:30:00,
2013-08-23 10:40:00,87.9,76.5,30.00,NE,46,4.0,4.0,69,0.00,,,0.00,Wunderground v.1.15,2013-08-23 15:40:00,
2013-08-23 10:45:00,88.3,76.8,30.00,NW,315,3.0,6.0,69,0.00,,,0.00,Wunderground v.1.15,2013-08-23 15:45:00,
2013-08-23 10:50:00,88.0,76.5,30.00,NE,48,4.0,4.0,69,0.00,,,0.00,Wunderground v.1.15,2013-08-23 15:50:00,
2013-08-23 11:00:00,88.9,77.4,30.00,NE,56,4.0,5.0,69,0.00,,,0.00,Wunderground v.1.15,2013-08-23 16:00:00,
2013-08-23 11:05:00,89.1,77.2,30.00,NE,48,4.0,5.0,68,0.00,,,0.00,Wunderground v.1.15,2013-08-23 16:05:00,
2013-08-23 11:15:00,90.0,76.6,30.00,ESE,108,4.0,6.0,65,0.00,,,0.00,Wunderground v.1.15,2013-08-23 16:15:00,
2013-08-23 11:20:00,90.0,75.7,30.00,ESE,107,5.0,5.0,63,0.00,,,0.00,Wunderground v.1.15,2013-08-23 16:20:00,
2013-08-23 11:25:00,89.7,75.9,30.00,NE,43,5.0,9.0,64,0.00,,,0.00,Wunderground v.1.15,2013-08-23 16:25:00,
2013-08-23 11:35:00,89.6,76.7,29.99,NNE,29,5.0,6.0,66,0.00,,,0.00,Wunderground v.1.15,2013-08-23 16:35:00,
2013-08-23 11:40:00,89.3,75.5,29.99,ENE,63,5.0,7.0,64,0.00,,,0.00,Wunderground v.1.15,2013-08-23 16:40:00,
2013-08-23 11:50:00,89.9,75.1,29.99,NE,40,5.0,6.0,62,0.00,,,0.00,Wunderground v.1.15,2013-08-23 16:50:00,
2013-08-23 11:55:00,89.7,75.9,29.99,ESE,114,5.0,6.0,64,0.00,,,0.00,Wunderground v.1.15,2013-08-23 16:55:00,
2013-08-23 12:00:00,90.0,76.2,29.98,East,89,5.0,6.0,64,0.00,,,0.00,Wunderground v.1.15,2013-08-23 17:00:00,
2013-08-23 12:10:00,89.8,76.5,29.98,East,94,6.0,6.0,65,0.00,,,0.00,Wunderground v.1.15,2013-08-23 17:10:00,
2013-08-23 12:15:00,89.9,76.1,29.98,ENE,67,6.0,6.0,64,0.00,,,0.00,Wunderground v.1.15,2013-08-23 17:15:00,
2013-08-23 12:25:00,90.5,75.7,29.98,East,79,5.0,6.0,62,0.00,,,0.00,Wunderground v.1.15,2013-08-23 17:25:00,
2013-08-23 12:30:00,90.6,75.3,29.98,NNE,30,6.0,6.0,61,0.00,,,0.00,Wunderground v.1.15,2013-08-23 17:30:00,
2013-08-23 12:35:00,90.0,75.2,29.97,ENE,75,7.0,7.0,62,0.00,,,0.00,Wunderground v.1.15,2013-08-23 17:35:00,
2013-08-23 12:45:00,90.9,74.1,29.97,NE,55,7.0,8.0,58,0.00,,,0.00,Wunderground v.1.15,2013-08-23 17:45:00,
2013-08-23 12:50:00,91.2,74.9,29.97,NE,55,7.0,7.0,59,0.00,,,0.00,Wunderground v.1.15,2013-08-23 17:50:00,
2013-08-23 12:55:00,91.2,74.4,29.97,ENE,76,6.0,7.0,58,0.00,,,0.00,Wunderground v.1.15,2013-08-23 17:55:00,
2013-08-23 13:05:00,92.5,74.0,29.97,ESE,110,5.0,7.0,55,0.00,,,0.00,Wunderground v.1.15,2013-08-23 18:05:00,
2013-08-23 13:10:00,92.1,74.7,29.96,East,94,7.0,10.0,57,0.00,,,0.00,Wunderground v.1.15,2013-08-23 18:10:00,
2013-08-23 13:20:00,92.3,74.9,29.96,ENE,63,6.0,6.0,57,0.00,,,0.00,Wunderground v.1.15,2013-08-23 18:20:00,
2013-08-23 13:25:00,92.9,74.9,29.95,East,85,5.0,6.0,56,0.00,,,0.00,Wunderground v.1.15,2013-08-23 18:25:00,
2013-08-23 13:30:00,93.1,74.0,29.96,SE,145,5.0,5.0,54,0.00,,,0.00,Wunderground v.1.15,2013-08-23 18:30:00,
2013-08-23 13:40:00,91.5,74.6,29.95,NNE,21,7.0,7.0,58,0.00,,,0.00,Wunderground v.1.15,2013-08-23 18:40:00,
2013-08-23 13:45:00,91.3,74.4,29.95,ENE,61,6.0,7.0,58,0.00,,,0.00,Wunderground v.1.15,2013-08-23 18:45:00,
2013-08-23 13:55:00,91.9,74.0,29.95,East,91,6.0,7.0,56,0.00,,,0.00,Wunderground v.1.15,2013-08-23 18:55:00,
2013-08-23 14:00:00,92.4,74.4,29.95,ENE,77,7.0,8.0,56,0.00,,,0.00,Wunderground v.1.15,2013-08-23 19:00:00,
2013-08-23 14:05:00,92.6,73.5,29.95,ENE,64,7.0,8.0,54,0.00,,,0.00,Wunderground v.1.15,2013-08-23 19:05:00,
2013-08-23 14:15:00,90.8,75.0,29.95,NE,55,6.0,7.0,60,0.00,,,0.00,Wunderground v.1.15,2013-08-23 19:15:00,
2013-08-23 14:20:00,90.1,73.8,29.94,NE,44,5.0,7.0,59,0.00,,,0.00,Wunderground v.1.15,2013-08-23 19:20:00,
2013-08-23 14:25:00,91.2,74.9,29.94,NNE,25,5.0,7.0,59,0.00,,,0.00,Wunderground v.1.15,2013-08-23 19:25:00,
2013-08-23 14:35:00,92.0,74.1,29.94,ENE,58,6.0,6.0,56,0.00,,,0.00,Wunderground v.1.15,2013-08-23 19:35:00,
2013-08-23 14:40:00,92.6,75.1,29.94,ENE,62,6.0,6.0,57,0.00,,,0.00,Wunderground v.1.15,2013-08-23 19:40:00,
2013-08-23 14:50:00,93.4,74.3,29.93,East,94,7.0,12.0,54,0.00,,,0.00,Wunderground v.1.15,2013-08-23 19:50:00,
2013-08-23 14:55:00,92.9,73.8,29.93,NE,54,8.0,12.0,54,0.00,,,0.00,Wunderground v.1.15,2013-08-23 19:55:00,
2013-08-23 15:05:00,92.8,74.3,29.93,NE,34,7.0,12.0,55,0.00,,,0.00,Wunderground v.1.15,2013-08-23 20:05:00,
2013-08-23 15:10:00,91.9,74.5,29.93,ENE,78,7.0,7.0,57,0.00,,,0.00,Wunderground v.1.15,2013-08-23 20:10:00,
2013-08-23 15:15:00,91.8,74.9,29.92,East,97,6.0,7.0,58,0.00,,,0.00,Wunderground v.1.15,2013-08-23 20:15:00,
2013-08-23 15:25:00,92.8,74.8,29.93,ENE,65,6.0,6.0,56,0.00,,,0.00,Wunderground v.1.15,2013-08-23 20:25:00,
2013-08-23 15:30:00,91.8,75.4,29.93,ENE,61,6.0,6.0,59,0.00,,,0.00,Wunderground v.1.15,2013-08-23 20:30:00,
2013-08-23 15:40:00,90.6,74.8,29.92,East,86,6.0,6.0,60,0.00,,,0.00,Wunderground v.1.15,2013-08-23 20:40:00,
2013-08-23 15:45:00,91.4,74.5,29.92,North,11,6.0,7.0,58,0.00,,,0.00,Wunderground v.1.15,2013-08-23 20:45:00,
2013-08-23 15:50:00,91.5,74.1,29.92,East,91,6.0,9.0,57,0.00,,,0.00,Wunderground v.1.15,2013-08-23 20:50:00,
2013-08-23 16:00:00,92.7,74.2,29.92,East,84,4.0,8.0,55,0.00,,,0.00,Wunderground v.1.15,2013-08-23 21:00:00,
2013-08-23 16:05:00,92.8,73.7,29.92,ENE,67,5.0,9.0,54,0.00,,,0.00,Wunderground v.1.15,2013-08-23 21:05:00,
2013-08-23 16:15:00,92.1,75.2,29.92,East,92,6.0,11.0,58,0.00,,,0.00,Wunderground v.1.15,2013-08-23 21:15:00,
2013-08-23 16:20:00,92.0,75.1,29.91,East,89,7.0,7.0,58,0.00,,,0.00,Wunderground v.1.15,2013-08-23 21:20:00,
2013-08-23 16:25:00,92.5,74.5,29.92,East,88,7.0,7.0,56,0.00,,,0.00,Wunderground v.1.15,2013-08-23 21:25:00,
2013-08-23 16:35:00,92.8,74.3,29.91,NE,49,6.0,6.0,55,0.00,,,0.00,Wunderground v.1.15,2013-08-23 21:35:00,
2013-08-23 16:40:00,92.7,74.7,29.91,ESE,103,6.0,9.0,56,0.00,,,0.00,Wunderground v.1.15,2013-08-23 21:40:00,
2013-08-23 16:45:00,92.6,74.1,29.91,South,175,7.0,9.0,55,0.00,,,0.00,Wunderground v.1.15,2013-08-23 21:45:00,
2013-08-23 16:55:00,92.3,73.8,29.92,ESE,108,7.0,8.0,55,0.00,,,0.00,Wunderground v.1.15,2013-08-23 21:55:00,
2013-08-23 17:00:00,92.5,74.5,29.92,NE,34,7.0,7.0,56,0.00,,,0.00,Wunderground v.1.15,2013-08-23 22:00:00,
2013-08-23 17:10:00,92.6,74.1,29.91,East,79,6.0,10.0,55,0.00,,,0.00,Wunderground v.1.15,2013-08-23 22:10:00,
2013-08-23 17:15:00,92.6,74.6,29.91,ENE,78,6.0,10.0,56,0.00,,,0.00,Wunderground v.1.15,2013-08-23 22:15:00,
2013-08-23 17:25:00,91.8,74.9,29.91,ENE,57,6.0,7.0,58,0.00,,,0.00,Wunderground v.1.15,2013-08-23 22:25:00,
2013-08-23 17:30:00,91.7,74.8,29.91,ESE,113,6.0,6.0,58,0.00,,,0.00,Wunderground v.1.15,2013-08-23 22:30:00,
2013-08-23 17:35:00,92.2,75.3,29.90,ESE,116,6.0,6.0,58,0.00,,,0.00,Wunderground v.1.15,2013-08-23 22:35:00,
2013-08-23 17:45:00,91.8,74.4,29.90,ENE,70,6.0,6.0,57,0.00,,,0.00,Wunderground v.1.15,2013-08-23 22:45:00,
2013-08-23 17:50:00,91.7,74.8,29.90,East,80,5.0,5.0,58,0.00,,,0.00,Wunderground v.1.15,2013-08-23 22:50:00,
2013-08-23 18:00:00,91.5,74.6,29.90,ENE,69,6.0,6.0,58,0.00,,,0.00,Wunderground v.1.15,2013-08-23 23:00:00,
2013-08-23 18:05:00,91.2,74.9,29.90,ESE,102,7.0,8.0,59,0.00,,,0.00,Wunderground v.1.15,2013-08-23 23:05:00,
2013-08-23 18:10:00,91.0,74.7,29.90,SE,140,6.0,6.0,59,0.00,,,0.00,Wunderground v.1.15,2013-08-23 23:10:00,
2013-08-23 18:20:00,90.8,74.5,29.90,East,97,5.0,5.0,59,0.00,,,0.00,Wunderground v.1.15,2013-08-23 23:20:00,
2013-08-23 18:25:00,90.7,74.9,29.90,ESE,104,4.0,6.0,60,0.00,,,0.00,Wunderground v.1.15,2013-08-23 23:25:00,
2013-08-23 18:30:00,90.6,75.3,29.90,ENE,68,4.0,5.0,61,0.00,,,0.00,Wunderground v.1.15,2013-08-23 23:30:00,
2013-08-23 18:40:00,90.3,74.5,29.90,East,92,5.0,6.0,60,0.00,,,0.00,Wunderground v.1.15,2013-08-23 23:40:00,
2013-08-23 18:50:00,90.2,75.9,29.90,East,94,4.0,5.0,63,0.00,,,0.00,Wunderground v.1.15,2013-08-23 23:50:00,
2013-08-23 18:55:00,90.0,75.2,29.90,SE,124,4.0,5.0,62,0.00,,,0.00,Wunderground v.1.15,2013-08-23 23:55:00,
2013-08-23 19:00:00,89.7,74.9,29.90,SE,132,5.0,5.0,62,0.00,,,0.00,Wunderground v.1.15,2013-08-24 00:00:00,
2013-08-23 19:10:00,89.0,75.2,29.90,SE,130,4.0,4.0,64,0.00,,,0.00,Wunderground v.1.15,2013-08-24 00:10:00,
2013-08-23 19:15:00,88.4,74.7,29.91,SE,145,4.0,4.0,64,0.00,,,0.00,Wunderground v.1.15,2013-08-24 00:15:00,
2013-08-23 19:25:00,87.3,75.9,29.91,ESE,110,5.0,10.0,69,0.00,,,0.00,Wunderground v.1.15,2013-08-24 00:25:00,
2013-08-23 19:30:00,86.4,75.9,29.91,SE,144,6.0,6.0,71,0.00,,,0.00,Wunderground v.1.15,2013-08-24 00:30:00,
2013-08-23 19:35:00,85.8,76.1,29.91,SSE,150,4.0,6.0,73,0.00,,,0.00,Wunderground v.1.15,2013-08-24 00:35:00,
2013-08-23 19:45:00,84.8,75.6,29.92,SE,132,3.0,3.0,74,0.00,,,0.00,Wunderground v.1.15,2013-08-24 00:45:00,
2013-08-23 19:50:00,84.3,75.5,29.92,ESE,122,3.0,3.0,75,0.00,,,0.00,Wunderground v.1.15,2013-08-24 00:50:00,
2013-08-23 20:00:00,83.6,75.2,29.92,ESE,108,3.0,3.0,76,0.00,,,0.00,Wunderground v.1.15,2013-08-24 01:00:00,
2013-08-23 20:05:00,83.2,75.2,29.93,ESE,120,2.0,3.0,77,0.00,,,0.00,Wunderground v.1.15,2013-08-24 01:05:00,
2013-08-23 20:10:00,83.0,75.0,29.93,SE,142,2.0,2.0,77,0.00,,,0.00,Wunderground v.1.15,2013-08-24 01:10:00,
2013-08-23 20:20:00,82.4,74.8,29.93,ESE,122,2.0,2.0,78,0.00,,,0.00,Wunderground v.1.15,2013-08-24 01:20:00,
2013-08-23 20:25:00,82.1,74.6,29.93,ESE,107,2.0,4.0,78,0.00,,,0.00,Wunderground v.1.15,2013-08-24 01:25:00,
2013-08-23 20:35:00,81.7,74.9,29.93,SE,124,2.0,3.0,80,0.00,,,0.00,Wunderground v.1.15,2013-08-24 01:35:00,
2013-08-23 20:40:00,81.5,74.7,29.93,ESE,120,2.0,2.0,80,0.00,,,0.00,Wunderground v.1.15,2013-08-24 01:40:00,
2013-08-23 20:45:00,81.2,74.8,29.93,East,101,2.0,3.0,81,0.00,,,0.00,Wunderground v.1.15,2013-08-24 01:45:00,
2013-08-23 20:55:00,80.9,74.9,29.94,East,96,2.0,3.0,82,0.00,,,0.00,Wunderground v.1.15,2013-08-24 01:55:00,
2013-08-23 21:00:00,80.7,74.7,29.94,East,99,1.0,3.0,82,0.00,,,0.00,Wunderground v.1.15,2013-08-24 02:00:00,
2013-08-23 21:10:00,80.5,74.9,29.94,SE,131,1.0,1.0,83,0.00,,,0.00,Wunderground v.1.15,2013-08-24 02:10:00,
2013-08-23 21:15:00,80.3,74.7,29.95,ESE,102,1.0,3.0,83,0.00,,,0.00,Wunderground v.1.15,2013-08-24 02:15:00,
2013-08-23 21:25:00,80.0,75.1,29.95,ESE,120,1.0,3.0,85,0.00,,,0.00,Wunderground v.1.15,2013-08-24 02:25:00,
2013-08-23 21:35:00,79.8,74.9,29.95,ESE,107,1.0,3.0,85,0.00,,,0.00,Wunderground v.1.15,2013-08-24 02:35:00,
2013-08-23 21:40:00,79.7,75.1,29.96,ESE,120,1.0,3.0,86,0.00,,,0.00,Wunderground v.1.15,2013-08-24 02:40:00,
2013-08-23 21:45:00,79.6,75.4,29.96,East,98,1.0,3.0,87,0.00,,,0.00,Wunderground v.1.15,2013-08-24 02:45:00,
2013-08-23 21:55:00,79.2,75.0,29.97,ESE,105,1.0,3.0,87,0.00,,,0.00,Wunderground v.1.15,2013-08-24 02:55:00,
2013-08-23 22:00:00,79.1,75.2,29.97,East,101,1.0,1.0,88,0.00,,,0.00,Wunderground v.1.15,2013-08-24 03:00:00,
2013-08-23 22:05:00,79.1,75.2,29.98,East,93,1.0,2.0,88,0.00,,,0.00,Wunderground v.1.15,2013-08-24 03:05:00,
2013-08-23 22:15:00,79.0,75.1,29.98,ESE,119,1.0,3.0,88,0.00,,,0.00,Wunderground v.1.15,2013-08-24 03:15:00,
2013-08-23 22:20:00,79.0,75.1,29.98,East,101,2.0,3.0,88,0.00,,,0.00,Wunderground v.1.15,2013-08-24 03:20:00,
2013-08-23 22:30:00,78.6,74.7,29.99,ESE,107,3.0,3.0,88,0.00,,,0.00,Wunderground v.1.15,2013-08-24 03:30:00,
2013-08-23 22:35:00,78.5,75.0,29.99,East,97,2.0,4.0,89,0.00,,,0.00,Wunderground v.1.15,2013-08-24 03:35:00,
2013-08-23 22:45:00,78.3,74.8,29.99,ESE,105,2.0,3.0,89,0.00,,,0.00,Wunderground v.1.15,2013-08-24 03:45:00,
2013-08-23 22:50:00,78.2,74.7,29.99,ESE,104,2.0,3.0,89,0.00,,,0.00,Wunderground v.1.15,2013-08-24 03:50:00,
2013-08-23 23:00:00,78.1,74.9,29.99,SE,135,2.0,3.0,90,0.00,,,0.00,Wunderground v.1.15,2013-08-24 04:00:00,
2013-08-23 23:05:00,78.0,74.8,29.99,East,99,2.0,3.0,90,0.00,,,0.00,Wunderground v.1.15,2013-08-24 04:05:00,
2013-08-23 23:10:00,77.9,74.7,29.99,SE,124,2.0,2.0,90,0.00,,,0.00,Wunderground v.1.15,2013-08-24 04:10:00,
2013-08-23 23:15:00,77.7,74.5,29.99,SE,133,2.0,3.0,90,0.00,,,0.00,Wunderground v.1.15,2013-08-24 04:15:00,
2013-08-23 23:20:00,77.6,74.8,29.99,ESE,103,2.0,3.0,91,0.00,,,0.00,Wunderground v.1.15,2013-08-24 04:20:00,
2013-08-23 23:25:00,77.5,74.7,29.99,SE,129,2.0,3.0,91,0.00,,,0.00,Wunderground v.1.15,2013-08-24 04:25:00,
2013-08-23 23:30:00,77.4,74.6,29.99,ENE,75,2.0,3.0,91,0.00,,,0.00,Wunderground v.1.15,2013-08-24 04:30:00,
2013-08-23 23:40:00,77.2,74.4,29.99,East,100,1.0,3.0,91,0.00,,,0.00,Wunderground v.1.15,2013-08-24 04:40:00,
2013-08-23 23:50:00,77.0,74.5,29.99,ESE,110,1.0,3.0,92,0.00,,,0.00,Wunderground v.1.15,2013-08-24 04:50:00,
2013-08-23 23:55:00,77.0,74.5,30.00,ESE,104,1.0,3.0,92,0.00,,,0.00,Wunderground v.1.15,2013-08-24 04:55:00,